When you browse on this site, cookies collect data to enhance your experience and personalize the content and advertising you see.
Visit our Privacy Policy to learn more. By continuing to use the site, you agree to this use of cookies and data.
  • Em Portugal
  • Lista de países
  • Para 7 dias
  • Temperatura da água
  • Mapas de satélite
  • Mapa do tempo
  • Widgets de tempo
  • user-avatar
    Iniciar Sessão

    Previsão horária em Kandi

    Hoje, 27 Maio, Segunda-feira

    Tempo Temperatura Precipitação Vento Pressão Humidade
    00:00 +35°C° 0 mm 3 m/s 735 mmHg 48%
    01:00 +34°C° 0 mm 3 m/s 735 mmHg 49%
    02:00 +34°C° 0 mm 3 m/s 735 mmHg 50%
    03:00 +33°C° 0 mm 3 m/s 735 mmHg 51%
    04:00 +33°C° 0 mm 4 m/s 735 mmHg 54%
    05:00 +32°C° 0 mm 4 m/s 735 mmHg 57%
    06:00 +32°C° 0 mm 4 m/s 735 mmHg 60%
    07:00 +33°C° 0 mm 4 m/s 736 mmHg 56%
    08:00 +34°C° 0 mm 4 m/s 736 mmHg 52%
    09:00 +36°C° 0 mm 3 m/s 736 mmHg 49%
    10:00 +37°C° 0 mm 3 m/s 736 mmHg 43%
    11:00 +39°C° 0 mm 3 m/s 736 mmHg 38%
    12:00 +42°C° 0 mm 3 m/s 735 mmHg 32%
    13:00 +42°C° 0 mm 2 m/s 735 mmHg 29%
    14:00 +43°C° 0 mm 2 m/s 734 mmHg 25%
    15:00 +45°C° 0 mm 1 m/s 733 mmHg 22%
    16:00 +43°C° 0 mm 1 m/s 733 mmHg 25%
    17:00 +42°C° 0 mm 1 m/s 733 mmHg 27%
    18:00 +40°C° 0 mm 2 m/s 733 mmHg 29%
    19:00 +39°C° 0 mm 2 m/s 733 mmHg 35%
    20:00 +38°C° 0 mm 2 m/s 734 mmHg 40%
    21:00 +36°C° 0 mm 2 m/s 734 mmHg 45%
    22:00 +35°C° 0 mm 3 m/s 734 mmHg 49%
    23:00 +35°C° 0 mm 3 m/s 734 mmHg 52%

    Amanhã, 28 Maio, Terça-feira

    Tempo Temperatura Precipitação Vento Pressão Humidade
    00:00 +34°C° 0 mm 4 m/s 735 mmHg 56%
    01:00 +33°C° 0 mm 4 m/s 735 mmHg 58%
    02:00 +32°C° 0 mm 4 m/s 735 mmHg 59%
    03:00 +32°C° 0 mm 4 m/s 735 mmHg 61%
    04:00 +30°C° 0 mm 3 m/s 735 mmHg 62%
    05:00 +30°C° 0 mm 3 m/s 735 mmHg 63%
    06:00 +30°C° 0 mm 3 m/s 735 mmHg 64%
    07:00 +31°C° 0 mm 3 m/s 736 mmHg 61%
    08:00 +33°C° 0 mm 3 m/s 736 mmHg 57%
    09:00 +34°C° 0 mm 3 m/s 737 mmHg 53%
    10:00 +36°C° 0 mm 3 m/s 736 mmHg 47%
    11:00 +38°C° 0 mm 3 m/s 736 mmHg 40%
    12:00 +40°C° 0 mm 3 m/s 736 mmHg 34%
    13:00 +42°C° 0 mm 3 m/s 735 mmHg 32%
    14:00 +43°C° 0 mm 3 m/s 734 mmHg 30%
    15:00 +44°C° 0 mm 3 m/s 734 mmHg 28%
    16:00 +41°C° 0 mm 2 m/s 734 mmHg 30%
    17:00 +40°C° 0 mm 2 m/s 734 mmHg 33%
    18:00 +39°C° 0 mm 2 m/s 734 mmHg 35%
    19:00 +38°C° 0.1 mm 2 m/s 734 mmHg 39%
    20:00 +37°C° 0.1 mm 3 m/s 735 mmHg 42%
    21:00 +36°C° 0.1 mm 3 m/s 735 mmHg 46%
    22:00 +35°C° 0.1 mm 3 m/s 735 mmHg 49%
    23:00 +35°C° 0.1 mm 2 m/s 735 mmHg 51%

    Depois de amanhã, 29 Maio, Quarta-feira

    Tempo Temperatura Precipitação Vento Pressão Humidade
    00:00 +34°C° 0.1 mm 2 m/s 735 mmHg 54%
    01:00 +34°C° 0.1 mm 3 m/s 735 mmHg 56%
    02:00 +33°C° 0.1 mm 3 m/s 735 mmHg 58%
    03:00 +33°C° 0.1 mm 3 m/s 735 mmHg 61%
    04:00 +31°C° 0 mm 3 m/s 735 mmHg 64%
    05:00 +31°C° 0 mm 3 m/s 735 mmHg 67%
    06:00 +30°C° 0 mm 4 m/s 736 mmHg 70%
    07:00 +32°C° 0 mm 4 m/s 736 mmHg 64%
    08:00 +34°C° 0 mm 4 m/s 736 mmHg 58%
    09:00 +35°C° 0 mm 4 m/s 737 mmHg 52%
    10:00 +37°C° 0 mm 4 m/s 736 mmHg 46%
    11:00 +39°C° 0 mm 3 m/s 736 mmHg 40%
    12:00 +42°C° 0 mm 3 m/s 735 mmHg 34%
    13:00 +42°C° 0 mm 2 m/s 734 mmHg 31%
    14:00 +43°C° 0 mm 2 m/s 734 mmHg 28%
    15:00 +44°C° 0 mm 1 m/s 733 mmHg 25%
    16:00 +43°C° 0 mm 1 m/s 733 mmHg 27%
    17:00 +41°C° 0 mm 1 m/s 733 mmHg 29%
    18:00 +40°C° 0 mm 1 m/s 733 mmHg 31%
    19:00 +39°C° 0.7 mm 2 m/s 733 mmHg 37%
    20:00 +37°C° 0.7 mm 2 m/s 734 mmHg 43%
    21:00 +36°C° 0.7 mm 2 m/s 734 mmHg 50%
    22:00 +34°C° 2.1 mm 3 m/s 734 mmHg 59%
    23:00 +33°C° 2.1 mm 5 m/s 734 mmHg 68%

    30 Maio, Quinta-feira

    Tempo Temperatura Precipitação Vento Pressão Humidade
    00:00 +30°C° 2.1 mm 6 m/s 734 mmHg 77%
    01:00 +30°C° 1.4 mm 5 m/s 734 mmHg 77%
    02:00 +29°C° 1.4 mm 4 m/s 734 mmHg 77%
    03:00 +29°C° 1.4 mm 3 m/s 734 mmHg 77%
    04:00 +29°C° 0.1 mm 3 m/s 735 mmHg 78%
    05:00 +29°C° 0.1 mm 3 m/s 735 mmHg 79%
    06:00 +28°C° 0.1 mm 4 m/s 735 mmHg 80%
    07:00 +29°C° 0 mm 4 m/s 736 mmHg 78%
    08:00 +30°C° 0 mm 4 m/s 736 mmHg 75%
    09:00 +32°C° 0 mm 4 m/s 737 mmHg 72%
    10:00 +33°C° 0 mm 4 m/s 736 mmHg 66%
    11:00 +34°C° 0 mm 4 m/s 736 mmHg 60%
    12:00 +36°C° 0 mm 4 m/s 736 mmHg 55%
    13:00 +36°C° 0 mm 3 m/s 735 mmHg 53%
    14:00 +36°C° 0 mm 3 m/s 734 mmHg 52%
    15:00 +37°C° 0 mm 2 m/s 734 mmHg 50%
    16:00 +35°C° 2.1 mm 3 m/s 734 mmHg 56%
    17:00 +34°C° 2.1 mm 3 m/s 734 mmHg 62%
    18:00 +33°C° 2.1 mm 3 m/s 734 mmHg 68%
    19:00 +31°C° 0.2 mm 3 m/s 735 mmHg 69%
    20:00 +31°C° 0.2 mm 3 m/s 736 mmHg 69%
    21:00 +30°C° 0.2 mm 3 m/s 736 mmHg 70%
    22:00 +30°C° 0 mm 3 m/s 736 mmHg 72%
    23:00 +29°C° 0 mm 3 m/s 736 mmHg 73%

    31 Maio, Sexta-feira

    Tempo Temperatura Precipitação Vento Pressão Humidade
    00:00 +29°C° 0 mm 2 m/s 735 mmHg 75%
    01:00 +29°C° 0 mm 3 m/s 735 mmHg 78%
    02:00 +28°C° 0 mm 3 m/s 735 mmHg 80%
    03:00 +28°C° 0 mm 4 m/s 735 mmHg 83%
    04:00 +28°C° 0 mm 4 m/s 735 mmHg 83%
    05:00 +28°C° 0 mm 4 m/s 735 mmHg 83%
    06:00 +28°C° 0 mm 3 m/s 735 mmHg 83%
    07:00 +29°C° 0 mm 3 m/s 736 mmHg 78%
    08:00 +30°C° 0 mm 3 m/s 736 mmHg 73%
    09:00 +31°C° 0 mm 3 m/s 737 mmHg 69%
    10:00 +33°C° 0 mm 3 m/s 737 mmHg 63%
    11:00 +35°C° 0 mm 3 m/s 736 mmHg 57%
    12:00 +36°C° 0 mm 3 m/s 736 mmHg 51%
    13:00 +37°C° 0 mm 2 m/s 735 mmHg 48%
    14:00 +37°C° 0 mm 2 m/s 735 mmHg 45%
    15:00 +38°C° 0 mm 2 m/s 734 mmHg 42%
    16:00 +37°C° 0 mm 2 m/s 734 mmHg 46%
    17:00 +36°C° 0 mm 2 m/s 734 mmHg 50%
    18:00 +35°C° 0 mm 3 m/s 734 mmHg 54%
    19:00 +34°C° 0 mm 2 m/s 735 mmHg 57%
    20:00 +32°C° 0 mm 2 m/s 735 mmHg 60%
    21:00 +32°C° 0 mm 2 m/s 736 mmHg 63%
    22:00 +31°C° 0.3 mm 2 m/s 736 mmHg 65%
    23:00 +31°C° 0.3 mm 3 m/s 735 mmHg 68%

    1 Junho, Sábado

    Tempo Temperatura Precipitação Vento Pressão Humidade
    00:00 +30°C° 0.3 mm 3 m/s 735 mmHg 70%
    01:00 +29°C° 0.8 mm 3 m/s 735 mmHg 74%
    02:00 +28°C° 0.8 mm 3 m/s 735 mmHg 78%
    03:00 +28°C° 0.8 mm 3 m/s 734 mmHg 83%
    04:00 +27°C° 0.3 mm 3 m/s 735 mmHg 83%
    05:00 +27°C° 0.3 mm 3 m/s 735 mmHg 84%
    06:00 +27°C° 0.3 mm 3 m/s 736 mmHg 85%
    07:00 +28°C° 0 mm 3 m/s 736 mmHg 81%
    08:00 +29°C° 0 mm 3 m/s 737 mmHg 76%
    09:00 +30°C° 0 mm 2 m/s 737 mmHg 72%
    10:00 +31°C° 0 mm 2 m/s 737 mmHg 66%
    11:00 +32°C° 0 mm 2 m/s 736 mmHg 60%
    12:00 +35°C° 0 mm 2 m/s 736 mmHg 55%
    13:00 +36°C° 0 mm 2 m/s 735 mmHg 51%
    14:00 +37°C° 0 mm 2 m/s 735 mmHg 48%
    15:00 +37°C° 0 mm 2 m/s 734 mmHg 45%
    16:00 +36°C° 0 mm 2 m/s 734 mmHg 48%
    17:00 +35°C° 0 mm 2 m/s 735 mmHg 51%
    18:00 +34°C° 0 mm 2 m/s 735 mmHg 55%
    19:00 +32°C° 0.3 mm 2 m/s 735 mmHg 59%
    20:00 +32°C° 0.3 mm 1 m/s 736 mmHg 64%
    21:00 +31°C° 0.3 mm 1 m/s 736 mmHg 68%
    22:00 +30°C° 0 mm 1 m/s 736 mmHg 69%
    23:00 +30°C° 0 mm 1 m/s 736 mmHg 70%
    Mostrar mais